Home > Weather > East Hants > Past weeks

Flag for Canada Past Weather in East Hants, Nova Scotia, Canada — Yesterday and Last 2 Weeks

Now
54 °F

Fog.


Feels Like: 52 °F
Forecast: 54 / 72 °F
Wind: 6 mph from North

Location: Halifax International Airport

Current Time: Aug 28, 2016 at 6:06:09 AM

Latest Report: Aug 28, 2016 at 5:00 AM


Visibility: 0 mi

Pressure: 30.28 "Hg

Humidity: 100%

Dew Point: 54 °F

Location of East HantsLocation

Past Weather in East Hants — Graph

°F

East Hants Temperature Yesterday

Maximum temperature yesterday: 73 °F (at 1:00 PM)
Minimum temperature yesterday: 59 °F (at 11:00 PM)
Average temperature yesterday: 67 °F

High & Low Weather Summary for the Past Weeks

 TemperatureHumidityPressure
High81 °F (Aug 18, 5:00 PM)100% (Aug 13, 6:00 AM)30.28 "Hg (Aug 13, 6:00 AM)
Low54 °F (Aug 28, 3:00 AM)41% (Aug 23, 4:00 PM)29.67 "Hg (Aug 17, 4:00 PM)
Average66 °F83%29.99 "Hg
* Reported Aug 13 5:00 AM — Aug 28 5:00 AM, East Hants, Weather by CustomWeather, © 2016

Note: Actual official high and low records may vary slightly from our data, if they occured in-between our weather recording intervals... More about our weather records

Advertising

East Hants Weather History for the Previous 24 Hours

Scroll right to see more
 ConditionsComfort  
Time TempWeatherWind HumidityBarometerVisibility
5:00 AM
Sun, Aug 28
54 °FFog.6 mph100%30.28 "Hg0 mi
4:00 AM54 °FFog.2 mph100%30.27 "Hg0 mi
3:00 AM54 °FFog.6 mph100%30.27 "Hg6 mi
2:00 AM55 °FFog.3 mph100%30.26 "Hg8 mi
1:00 AM57 °FClear.6 mph94%30.26 "Hg15 mi
12:00 AM57 °FClear.6 mph100%30.24 "Hg15 mi
11:00 PM
Sat, Aug 27
59 °FClear.6 mph100%30.24 "Hg15 mi
10:00 PM61 °FPassing clouds.9 mph94%30.22 "Hg15 mi
9:00 PM64 °FPassing clouds.8 mph83%30.21 "Hg15 mi
8:00 PM66 °FPartly sunny.9 mph78%30.19 "Hg15 mi
7:00 PM68 °FPartly sunny.10 mph73%30.17 "Hg15 mi
6:00 PM70 °FPartly sunny.16 mph69%30.14 "Hg15 mi
5:00 PM72 °FPartly sunny.17 mph61%30.11 "Hg15 mi
4:00 PM73 °FBroken clouds.18 mph61%30.10 "Hg15 mi
3:00 PM72 °FPartly sunny.17 mph65%30.08 "Hg15 mi
2:00 PM73 °FPartly sunny.13 mph65%30.07 "Hg15 mi
1:00 PM73 °FPartly sunny.13 mph65%30.06 "Hg15 mi
12:00 PM72 °FPartly sunny.13 mph69%30.06 "Hg15 mi
11:00 AM70 °FPartly sunny.10 mph73%30.04 "Hg15 mi
10:00 AM68 °FPartly sunny.14 mph83%30.02 "Hg15 mi
9:00 AM66 °FScattered clouds.12 mph88%30.01 "Hg15 mi
8:00 AM64 °FPassing clouds.7 mph94%29.98 "Hg15 mi
7:00 AM64 °FPassing clouds.8 mph94%29.97 "Hg15 mi
6:00 AM64 °FPassing clouds.10 mph100%29.94 "Hg12 mi
Weather by CustomWeather, © 2016

See weather overviewHow to use our weather pages